Change the Weather History Date:

Monday, February 11, 2013

  Actual Average Record
Temperature  
Mean Temperature 26 °F -  
Max Temperature 29 °F 41 °F - ()
Min Temperature 24 °F 28 °F - ()
Degree Days  
Heating Degree Days 38    
Moisture  
Dew Point 21 °F    
Average Humidity 78    
Maximum Humidity 93    
Minimum Humidity 53    
Precipitation  
Precipitation 0.00 in 0.03 in - ()
Sea Level Pressure  
Sea Level Pressure 29.81 in    
Wind  
Wind Speed 10 mph ()    
Max Wind Speed 21 mph    
Max Gust Speed 32 mph    
Visibility 5.2 miles    
Events Snow    
T = Trace of Precipitation, MM = Missing Value Source: Averaged Metar Reports

Daily Weather History Graph

Daily Weather History Graph

Search for Another Location

Airport or City:

Trip Planner

Search our weather history database for the weather conditions in past years. The results will help you decide how hot, cold, wet, or windy it might be!

Date:

Astronomy

Feb. 11, 2013 Rise Set
Actual Time 7:08 AM CET 5:06 PM CET
Civil Twilight 6:35 AM CET 5:39 PM CET
Nautical Twilight 5:58 AM CET 6:17 PM CET
Astronomical Twilight 5:21 AM CET 6:54 PM CET
Moon 7:12 AM CET (2/11) 6:58 PM CET (2/11)
Length of Visible Light 11h 04m
Length of Day
9h 58m
New Moon, 2% of the Moon is Illuminated
Feb 11
New Moon
Feb 17
First Quarter
Feb 25
Full
Mar 4
Last Quarter
Mar 11
New

Hourly Weather History & Observations

Time (CET) Temp. Windchill Dew Point Humidity Pressure Visibility Wind Dir Wind Speed Gust Speed Precip Events Conditions
12:00 AM 26.6 °F 20.0 °F 21.2 °F 80% 29.83 in 6.2 mi NNE 5.8 mph - N/A   Overcast
12:22 AM 26.6 °F 19.1 °F 21.2 °F 80% 29.83 in 6.2 mi NE 6.9 mph - N/A Snow Light Snow
12:30 AM 26.6 °F 19.1 °F 21.2 °F 80% 29.83 in 6.2 mi NE 6.9 mph - N/A Snow Light Snow
12:40 AM 26.6 °F 20.0 °F 21.2 °F 80% 29.83 in 6.2 mi NNE 5.8 mph - N/A Snow Light Snow
1:00 AM 27 °F - 21 °F 68% 29.90 in 4 mi NNE 4.5 mph - - Snow Light Snow
1:00 AM 26.6 °F 20.0 °F 21.2 °F 80% 29.83 in 4.3 mi NE 5.8 mph - N/A Snow Light Snow
1:30 AM 26.6 °F 22.6 °F 23.0 °F 86% 29.83 in 5.0 mi NE 3.5 mph - N/A Snow Light Snow
2:00 AM 26.6 °F 19.1 °F 21.2 °F 80% 29.83 in 5.0 mi NE 6.9 mph - N/A Snow Light Snow
2:30 AM 26.6 °F 17.5 °F 21.2 °F 80% 29.83 in 6.2 mi NE 9.2 mph - N/A Snow Light Snow
3:00 AM 26.6 °F 15.7 °F 23.0 °F 86% 29.83 in 6.2 mi ENE 12.7 mph - N/A Snow Light Snow
3:30 AM 26.6 °F 16.8 °F 23.0 °F 86% 29.80 in 5.0 mi ENE 10.4 mph - N/A   Overcast
4:00 AM 26.6 °F 18.2 °F 23.0 °F 86% 29.80 in 5.0 mi East 8.1 mph - N/A   Overcast
4:30 AM 26.6 °F 19.1 °F 23.0 °F 86% 29.80 in 5.0 mi East 6.9 mph - N/A   Overcast
5:00 AM 26.6 °F 17.5 °F 23.0 °F 86% 29.80 in 4.3 mi East 9.2 mph - N/A   Overcast
5:30 AM 26.6 °F 19.1 °F 23.0 °F 86% 29.80 in 4.3 mi East 6.9 mph - N/A   Overcast
5:54 AM 26.6 °F 18.2 °F 23.0 °F 86% 29.80 in 4.3 mi East 8.1 mph - N/A   Overcast
6:00 AM 26.6 °F 18.2 °F 23.0 °F 86% 29.80 in 3.7 mi East 8.1 mph - N/A   Overcast
6:30 AM 26.6 °F 18.2 °F 23.0 °F 86% 29.80 in 3.1 mi East 8.1 mph - N/A   Overcast
6:46 AM 26.6 °F 19.1 °F 23.0 °F 86% 29.80 in 3.1 mi East 6.9 mph - N/A   Overcast
7:00 AM 26 °F - 22 °F 77% 29.88 in 3 mi East 8.9 mph - -   Mist
7:00 AM 26.6 °F 19.1 °F 23.0 °F 86% 29.80 in 3.1 mi East 6.9 mph - N/A   Overcast
7:30 AM 24.8 °F 16.1 °F 23.0 °F 93% 29.80 in 3.1 mi ESE 8.1 mph - N/A   Overcast
8:00 AM 24.8 °F 14.6 °F 21.2 °F 86% 29.83 in 3.1 mi ESE 10.4 mph - N/A   Overcast
8:30 AM 24.8 °F 15.3 °F 21.2 °F 86% 29.83 in 3.1 mi ESE 9.2 mph - N/A   Overcast
8:33 AM 24.8 °F 15.3 °F 21.2 °F 86% 29.83 in 3.1 mi SE 9.2 mph - N/A   Overcast
9:00 AM 26.6 °F 17.5 °F 21.2 °F 80% 29.83 in 3.7 mi ESE 9.2 mph - N/A   Overcast
9:30 AM 26.6 °F 16.8 °F 21.2 °F 80% 29.83 in 3.7 mi ESE 10.4 mph - N/A   Overcast
10:00 AM 26.6 °F 15.2 °F 21.2 °F 80% 29.83 in 4.3 mi SE 13.8 mph - N/A   Overcast
10:03 AM 26.6 °F 15.7 °F 21.2 °F 80% 29.83 in 4.3 mi ESE 12.7 mph - N/A Snow Light Snow
10:30 AM 26.6 °F 15.2 °F 21.2 °F 80% 29.83 in 4.3 mi ESE 13.8 mph - N/A Snow Light Snow
11:00 AM 26.6 °F 15.2 °F 21.2 °F 80% 29.83 in 4.3 mi SE 13.8 mph - N/A Snow Light Snow
11:30 AM 26.6 °F 16.2 °F 21.2 °F 80% 29.83 in 4.3 mi ESE 11.5 mph - N/A   Overcast
12:00 PM 28.4 °F 18.0 °F 23.0 °F 80% 29.80 in 5.0 mi ESE 12.7 mph - N/A   Overcast
12:30 PM 28.4 °F 17.0 °F 23.0 °F 80% 29.80 in 5.0 mi ESE 15.0 mph - N/A   Overcast
1:00 PM 28 °F - 20 °F 63% 29.86 in 6 mi ESE 13.4 mph - -   Mist
1:00 PM 28.4 °F 17.5 °F 21.2 °F 74% 29.80 in 5.6 mi SE 13.8 mph - N/A   Overcast
1:30 PM 28.4 °F 16.6 °F 21.2 °F 74% 29.80 in 5.6 mi SE 16.1 mph - N/A   Overcast
2:00 PM 28.4 °F 17.0 °F 21.2 °F 74% 29.77 in 6.2 mi ESE 15.0 mph - N/A   Overcast
2:30 PM 28.4 °F 17.5 °F 21.2 °F 74% 29.80 in 6.2 mi ESE 13.8 mph - N/A   Overcast
3:00 PM 28.4 °F 17.5 °F 21.2 °F 74% 29.80 in 6.2 mi ESE 13.8 mph - N/A   Overcast
3:30 PM 28.4 °F 17.0 °F 21.2 °F 74% 29.77 in 6.2 mi ESE 15.0 mph - N/A   Overcast
4:00 PM 28.4 °F 17.0 °F 21.2 °F 74% 29.80 in 6.2 mi ESE 15.0 mph - N/A   Overcast
4:30 PM 28.4 °F 15.8 °F 21.2 °F 74% 29.80 in 6.2 mi ESE 18.4 mph - N/A   Overcast
5:00 PM 28.4 °F 16.2 °F 21.2 °F 74% 29.77 in 6.2 mi ESE 17.3 mph - N/A   Overcast
5:04 PM 28.4 °F 16.6 °F 21.2 °F 74% 29.80 in 6.2 mi ESE 16.1 mph - N/A Snow Light Snow
5:30 PM 28.4 °F 16.6 °F 21.2 °F 74% 29.77 in 6.2 mi ESE 16.1 mph - N/A   Overcast
6:00 PM 28.4 °F 15.8 °F 21.2 °F 74% 29.77 in 6.2 mi ESE 18.4 mph - N/A   Overcast
6:30 PM 28.4 °F 15.8 °F 21.2 °F 74% 29.77 in 6.2 mi ESE 18.4 mph - N/A   Overcast
7:00 PM 29 °F - 18 °F 53% 29.85 in 6 mi ESE 20.1 mph - -   Partly Cloudy
7:00 PM 28.4 °F 15.8 °F 21.2 °F 74% 29.77 in 6.2 mi ESE 18.4 mph - N/A   Overcast
7:30 PM 28.4 °F 15.4 °F 19.4 °F 69% 29.77 in 6.2 mi SE 19.6 mph - N/A   Overcast
8:00 PM 28.4 °F 15.4 °F 19.4 °F 69% 29.77 in 6.2 mi SE 19.6 mph - N/A Snow Light Snow
8:30 PM 28.4 °F 15.4 °F 19.4 °F 69% 29.77 in 6.2 mi SE 19.6 mph - N/A Snow Light Snow
9:00 PM 28.4 °F 15.8 °F 19.4 °F 69% 29.77 in 6.2 mi ESE 18.4 mph - N/A   Overcast
9:30 PM 28.4 °F 15.4 °F 19.4 °F 69% 29.77 in 6.2 mi ESE 19.6 mph - N/A   Overcast
9:39 PM 28.4 °F 15.8 °F 19.4 °F 69% 29.77 in 6.2 mi ESE 18.4 mph - N/A   Overcast
10:00 PM 28.4 °F 15.8 °F 19.4 °F 69% 29.77 in 6.2 mi ESE 18.4 mph - N/A   Overcast
10:30 PM 28.4 °F 16.2 °F 19.4 °F 69% 29.77 in 6.2 mi ESE 17.3 mph - N/A   Overcast
11:00 PM 28.4 °F 15.8 °F 19.4 °F 69% 29.80 in 6.2 mi SE 18.4 mph - N/A   Overcast
11:43 PM 26.6 °F 12.7 °F 19.4 °F 74% 29.80 in 6.2 mi SE 20.7 mph 32.2 mph N/A Snow Light Snow